{"data":{"norad_id":57497,"intl_designator":"2023-113C","name":"STARLINK-30226","alt_names":[],"object_type":"PAYLOAD","status":"ACTIVE","operator":null,"country":"US","launch_date":"2023-08-07","launch_site_code":"AFETR","launch_vehicle":null,"mission":null,"orbit_class":"UNKNOWN","rcs_meters":null,"size_class":null,"mass_kg":null,"dimensions":null,"purposes":["comms"],"wikipedia_slug":null,"has_3d_model":false,"image_url":null,"decayed_at":null,"tle_current":{"epoch":"2026-05-24T20:37:58.598400Z","epoch_age_seconds":81196,"freshness":"FRESH","line1":"1 57497U 23113C   26144.85970600  .00000258  00000+0  18921-4 0  9993","line2":"2 57497  43.0024 305.9812 0001515 252.4884 107.5802 15.27572745155223","mean_motion":15.27572745,"eccentricity":0.0001515,"inclination_deg":43.0024,"raan_deg":305.9812,"arg_perigee_deg":252.4884,"mean_anomaly_deg":107.5802,"bstar":1.8921e-5,"rev_number":15522,"period_min":94.267196420816,"perigee_km":482.03134722084,"apogee_km":484.11029319037,"semimajor_km":6861.2078202056,"source":"CELESTRAK","updated_at":"2026-05-25T13:38:18.327233Z"}}}